Location: Ocean City
(38.3360°N, 75.0850°W)
Time: 06:12:57
(UTC-05:00)

AAUSAT CUBESAT 2 - Visible Passes

Search period start: 21 November 2019 00:00
Search period end: 01 December 2019 00:00
Orbit: 574 x 591 km, 97.5° (Epoch: 21 November)

Date Brightness Start Highest point End Pass type
(mag) Time Alt. Az. Time Alt. Az. Time Alt. Az.
21 Nov ? 05:41:29 10° NE 05:44:29 19° E 05:47:29 10° SE visible
21 Nov ? 18:03:33 10° S 18:07:34 59° W 18:11:37 10° NNW visible
22 Nov ? 05:47:02 10° NE 05:50:18 22° E 05:53:35 10° SSE visible
22 Nov ? 18:09:25 10° S 18:13:22 49° W 18:17:20 10° NNW visible
23 Nov ? 05:52:38 10° NE 05:56:08 26° E 05:59:37 10° SSE visible
23 Nov ? 18:15:18 10° S 18:19:10 41° W 18:23:03 10° NNW visible
24 Nov ? 05:58:15 10° NE 06:01:57 30° E 06:05:38 10° SSE visible
24 Nov ? 18:21:14 10° SSW 18:24:58 35° W 18:28:45 10° NNW visible
25 Nov ? 06:03:55 10° NNE 06:07:46 36° E 06:11:35 10° SSE visible
25 Nov ? 18:27:11 10° SSW 18:30:47 30° W 18:34:24 10° NW visible
26 Nov ? 06:09:36 10° NNE 06:13:34 42° E 06:17:30 10° S visible
26 Nov ? 18:33:11 10° SSW 18:36:36 26° W 18:40:02 10° NW visible
27 Nov ? 06:15:19 10° NNE 06:19:22 50° E 06:23:24 10° S visible
27 Nov ? 18:39:13 10° SSW 18:42:24 22° W 18:45:37 10° NW visible
28 Nov ? 06:21:03 10° NNE 06:25:09 60° E 06:29:16 10° S visible
28 Nov ? 17:09:15 10° SE 17:12:49 30° ENE 17:16:24 10° N visible
28 Nov ? 18:45:19 10° SW 18:48:14 19° W 18:51:10 10° NW visible
29 Nov ? 06:26:48 10° NNE 06:30:57 71° ESE 06:35:05 10° S visible
29 Nov ? 17:14:51 10° SE 17:18:34 35° ENE 17:22:18 10° N visible
29 Nov ? 18:51:29 10° SW 18:54:03 16° W 18:56:39 10° NW visible
30 Nov ? 17:20:29 10° SE 17:24:19 41° ENE 17:28:10 10° N visible
30 Nov ? 18:57:46 10° WSW 18:59:53 14° W 19:02:01 10° WNW visible
